Time,TemperatureF,DewpointF,PressureIn,WindDirection,WindDirectionDegrees,WindSpeedMPH,WindSpeedGustMPH,Humidity,HourlyPrecipIn,Conditions,Clouds,dailyrainin,SoftwareType,DateUTC
2013-02-10 00:01:00,9.0,-99.9,30.07,NNE,22,12.0,19.0,0,-99.99,,,0.00,,2013-02-10 05:01:00,
2013-02-10 01:42:00,9.0,-99.9,30.08,North,360,19.0,19.0,0,-99.99,,,0.00,,2013-02-10 06:42:00,
2013-02-10 01:52:00,9.0,-99.9,30.08,North,360,19.0,19.0,0,-99.99,,,0.00,,2013-02-10 06:52:00,
2013-02-10 02:01:00,9.0,-99.9,30.08,North,360,19.0,19.0,0,-99.99,,,0.00,,2013-02-10 07:01:00,
2013-02-10 02:42:00,9.0,-99.9,30.09,North,360,5.0,19.0,0,-99.99,,,0.00,,2013-02-10 07:42:00,
2013-02-10 02:52:00,9.0,-99.9,30.09,North,360,5.0,19.0,0,-99.99,,,0.00,,2013-02-10 07:52:00,
2013-02-10 03:01:00,9.0,-99.9,30.09,North,360,5.0,19.0,0,-99.99,,,0.00,,2013-02-10 08:01:00,
2013-02-10 03:43:00,8.0,-99.9,30.09,North,360,8.0,15.0,0,-99.99,,,0.00,,2013-02-10 08:43:00,
2013-02-10 03:52:00,8.0,-99.9,30.09,North,360,8.0,15.0,0,-99.99,,,0.00,,2013-02-10 08:52:00,
2013-02-10 04:02:00,8.0,-99.9,30.09,North,360,8.0,15.0,0,-99.99,,,0.00,,2013-02-10 09:02:00,
2013-02-10 04:42:00,8.0,-99.9,30.11,NNW,337,6.0,17.0,0,-99.99,,,0.00,,2013-02-10 09:42:00,
2013-02-10 04:52:00,8.0,-99.9,30.11,NNW,337,6.0,17.0,0,-99.99,,,0.00,,2013-02-10 09:52:00,
2013-02-10 05:01:00,8.0,-99.9,30.11,NNW,337,6.0,17.0,0,-99.99,,,0.00,,2013-02-10 10:01:00,
2013-02-10 05:42:00,7.0,-99.9,30.12,NW,315,6.0,13.0,0,-99.99,,,0.00,,2013-02-10 10:42:00,
2013-02-10 05:52:00,7.0,-99.9,30.12,NW,315,6.0,13.0,0,-99.99,,,0.00,,2013-02-10 10:52:00,
2013-02-10 06:01:00,7.0,-99.9,30.12,NW,315,6.0,13.0,0,-99.99,,,0.00,,2013-02-10 11:01:00,
2013-02-10 06:42:00,7.0,-99.9,30.13,WNW,292,5.0,14.0,0,-99.99,,,0.00,,2013-02-10 11:42:00,
2013-02-10 06:52:00,7.0,-99.9,30.13,WNW,292,5.0,14.0,0,-99.99,,,0.00,,2013-02-10 11:52:00,
2013-02-10 07:02:00,7.0,-99.9,30.13,WNW,292,5.0,14.0,0,-99.99,,,0.00,,2013-02-10 12:02:00,
2013-02-10 07:42:00,6.0,-99.9,30.16,NW,315,11.0,13.0,0,-99.99,,,0.00,,2013-02-10 12:42:00,
2013-02-10 07:52:00,6.0,-99.9,30.16,NW,315,11.0,13.0,0,-99.99,,,0.00,,2013-02-10 12:52:00,
2013-02-10 08:02:00,6.0,-99.9,30.16,NW,315,11.0,13.0,0,-99.99,,,0.00,,2013-02-10 13:02:00,
2013-02-10 10:42:00,17.0,-99.9,30.20,North,360,11.0,17.0,0,-99.99,,,0.00,,2013-02-10 15:42:00,
2013-02-10 10:52:00,17.0,-99.9,30.20,North,360,11.0,17.0,0,-99.99,,,0.00,,2013-02-10 15:52:00,
2013-02-10 11:02:00,17.0,-99.9,30.20,North,360,11.0,17.0,0,-99.99,,,0.00,,2013-02-10 16:02:00,
2013-02-10 11:42:00,19.0,-99.9,30.19,North,360,9.0,19.0,0,-99.99,,,0.00,,2013-02-10 16:42:00,
2013-02-10 11:52:00,19.0,-99.9,30.19,North,360,9.0,19.0,0,-99.99,,,0.00,,2013-02-10 16:52:00,
2013-02-10 12:02:00,19.0,-99.9,30.19,North,360,9.0,19.0,0,-99.99,,,0.00,,2013-02-10 17:02:00,
2013-02-10 12:42:00,22.0,-99.9,30.19,NNW,337,6.0,19.0,0,-99.99,,,0.00,,2013-02-10 17:42:00,
2013-02-10 12:53:00,22.0,-99.9,30.19,NNW,337,6.0,19.0,0,-99.99,,,0.00,,2013-02-10 17:53:00,
2013-02-10 13:02:00,22.0,-99.9,30.19,NNW,337,6.0,19.0,0,-99.99,,,0.00,,2013-02-10 18:02:00,
2013-02-10 13:42:00,23.0,-99.9,30.17,NNW,337,8.0,18.0,0,-99.99,,,0.00,,2013-02-10 18:42:00,
2013-02-10 13:52:00,23.0,-99.9,30.17,NNW,337,8.0,18.0,0,-99.99,,,0.00,,2013-02-10 18:52:00,
2013-02-10 14:02:00,23.0,-99.9,30.17,NNW,337,8.0,18.0,0,-99.99,,,0.00,,2013-02-10 19:02:00,
2013-02-10 14:43:00,24.0,-99.9,30.17,North,360,8.0,16.0,0,-99.99,,,0.00,,2013-02-10 19:43:00,
2013-02-10 14:52:00,24.0,-99.9,30.17,North,360,8.0,16.0,0,-99.99,,,0.00,,2013-02-10 19:52:00,
2013-02-10 15:02:00,24.0,-99.9,30.17,North,360,8.0,16.0,0,-99.99,,,0.00,,2013-02-10 20:02:00,
2013-02-10 15:03:00,25.0,-99.9,30.17,North,360,5.0,16.0,0,-99.99,,,0.00,,2013-02-10 20:03:00,
2013-02-10 15:42:00,25.0,-99.9,30.17,North,360,5.0,16.0,0,-99.99,,,0.00,,2013-02-10 20:42:00,
2013-02-10 15:53:00,25.0,-99.9,30.17,North,360,5.0,16.0,0,-99.99,,,0.00,,2013-02-10 20:53:00,
2013-02-10 16:42:00,26.0,-99.9,30.16,North,360,4.0,11.0,0,-99.99,,,0.00,,2013-02-10 21:42:00,
2013-02-10 16:52:00,26.0,-99.9,30.16,North,360,4.0,11.0,0,-99.99,,,0.00,,2013-02-10 21:52:00,
2013-02-10 17:02:00,26.0,-99.9,30.16,North,360,4.0,11.0,0,-99.99,,,0.00,,2013-02-10 22:02:00,
2013-02-10 17:42:00,18.0,-99.9,30.17,NNE,22,0.0,7.0,0,-99.99,,,0.00,,2013-02-10 22:42:00,
2013-02-10 17:53:00,18.0,-99.9,30.17,NNE,22,0.0,7.0,0,-99.99,,,0.00,,2013-02-10 22:53:00,
2013-02-10 18:02:00,18.0,-99.9,30.17,NNE,22,0.0,7.0,0,-99.99,,,0.00,,2013-02-10 23:02:00,
2013-02-10 18:42:00,12.0,-99.9,30.19,WNW,292,0.0,3.0,0,-99.99,,,0.00,,2013-02-10 23:42:00,
2013-02-10 18:52:00,12.0,-99.9,30.19,WNW,292,0.0,3.0,0,-99.99,,,0.00,,2013-02-10 23:52:00,
2013-02-10 19:02:00,12.0,-99.9,30.19,WNW,292,0.0,3.0,0,-99.99,,,0.00,,2013-02-11 00:02:00,
2013-02-10 19:42:00,9.0,-99.9,30.20,SW,225,0.0,5.0,0,-99.99,,,0.00,,2013-02-11 00:42:00,
2013-02-10 19:52:00,9.0,-99.9,30.20,SW,225,0.0,5.0,0,-99.99,,,0.00,,2013-02-11 00:52:00,
2013-02-10 20:02:00,9.0,-99.9,30.20,SW,225,0.0,5.0,0,-99.99,,,0.00,,2013-02-11 01:02:00,
2013-02-10 21:42:00,3.0,-99.9,30.20,SSW,202,0.0,4.0,0,-99.99,,,0.00,,2013-02-11 02:42:00,
2013-02-10 21:52:00,3.0,-99.9,30.20,SSW,202,0.0,4.0,0,-99.99,,,0.00,,2013-02-11 02:52:00,
2013-02-10 22:02:00,3.0,-99.9,30.20,SSW,202,0.0,4.0,0,-99.99,,,0.00,,2013-02-11 03:02:00,
2013-02-10 22:42:00,4.0,-99.9,30.19,WSW,247,0.0,9.0,0,-99.99,,,0.00,,2013-02-11 03:42:00,
2013-02-10 22:52:00,4.0,-99.9,30.19,WSW,247,0.0,9.0,0,-99.99,,,0.00,,2013-02-11 03:52:00,
2013-02-10 23:02:00,4.0,-99.9,30.19,WSW,247,0.0,9.0,0,-99.99,,,0.00,,2013-02-11 04:02:00,
2013-02-10 23:42:00,1.0,-99.9,30.18,SW,225,0.0,5.0,0,-99.99,,,0.00,,2013-02-11 04:42:00,
2013-02-10 23:52:00,1.0,-99.9,30.18,SW,225,0.0,5.0,0,-99.99,,,0.00,,2013-02-11 04:52:00,